[[{"header":{"parameterUnit":"m.s-1","parameterCategory":2,"la1":30.2991,"la2":30.254,"lo1":-89.0895,"lo2":-89.0444,"dy":0.0017,"dx":0.0017,"nx":28,"ny":28,"refTime":"2025-03-26T21:00:00:Z","depth":"0","parameterNumber":2,"parameterNumberName":"U-component_of_CURRENTS"},"data":[0,0,0,0,0,0,0,0,0,0,0,0,0,0,0,0,0,0,0,0,0,0,0,0,0,0,0,0,0,0,0,0,0,0,0,0,0,0,0,0,0,0,0,0,0,0,0,0,0,0,0,0,0,0,0,0,0,0,-0.301,-0.301,0,-0.2947,-0.2945,-0.2944,-0.289,-0.289,-0.289,-0.2891,-0.2769,-0.2766,-0.2762,0,0,0,0,0,0,0,0,0,0,0,0,0,-0.3036,-0.3035,-0.301,-0.301,-0.301,-0.2947,-0.2945,-0.2944,-0.289,-0.289,-0.289,-0.2891,-0.277,-0.2766,-0.2762,0,0,0,0,0,0,0,0,0,0,0,0,0,-0.2996,-0.3035,-0.301,-0.2982,-0.2979,-0.2947,-0.2945,-0.2943,-0.289,-0.289,-0.2891,-0.2891,-0.2771,-0.2767,-0.2761,-0.2725,0,0,-0.2746,-0.2744,0,0,0,0,0,0,0,0,-0.2999,-0.2994,-0.2986,-0.2984,-0.2981,-0.2934,-0.291,-0.287,-0.289,-0.2915,-0.2891,-0.2891,-0.2824,-0.2814,-0.2791,-0.272,-0.2715,-0.2746,-0.2742,-0.274,-0.2739,0,0,0,0,0,0,0,-0.3001,-0.2997,-0.2977,-0.2986,-0.2983,-0.2956,-0.295,-0.2902,-0.2862,-0.2913,-0.2911,-0.2917,-0.2821,-0.2796,-0.2788,-0.2713,-0.2746,-0.2741,-0.2738,-0.2736,-0.2632,-0.2632,0,0,0,0,0,0,-0.3028,-0.2999,-0.2979,-0.2976,-0.3,-0.2956,-0.2949,-0.2942,-0.2863,-0.2854,-0.2917,-0.2915,-0.2805,-0.2794,-0.2783,-0.2757,-0.274,-0.2736,-0.2733,-0.2632,-0.2632,-0.2633,0,0,0,0,0,0,-0.3028,-0.3026,-0.2981,-0.2993,-0.2987,-0.2957,-0.2948,-0.2941,-0.2924,-0.2868,-0.2857,-0.2911,-0.2805,-0.2791,-0.2759,-0.2752,-0.2733,-0.2729,-0.2632,-0.2632,-0.2632,-0.2692,0,0,0,0,0,0,-0.3029,-0.3026,-0.3022,-0.2995,-0.2988,-0.2975,-0.2949,-0.294,-0.2931,-0.2928,-0.2859,-0.2847,-0.2804,-0.2767,-0.2754,-0.2744,-0.2725,-0.2631,-0.2632,-0.2632,-0.269,-0.2694,-0.2698,0,0,0,0,0,-0.303,-0.3031,-0.3022,-0.302,-0.2985,-0.2976,-0.2969,-0.2943,-0.2931,-0.2927,-0.2888,-0.285,-0.2761,-0.2763,-0.2748,-0.2737,-0.2631,-0.2632,-0.2632,-0.2688,-0.2693,-0.2698,0,0,0,0,0,0,-0.3032,-0.3026,-0.3015,-0.301,-0.3001,-0.2971,-0.2965,-0.295,-0.2914,-0.2909,-0.2853,-0.2839,-0.2806,-0.2768,-0.2773,-0.271,-0.2689,-0.2687,-0.2736,-0.2741,-0.2745,-0.2762,-0.272,0,0,0,0,0,-0.3035,-0.3036,-0.3024,-0.302,-0.3019,-0.2992,-0.2984,-0.2971,-0.2943,-0.2927,-0.2884,-0.2837,-0.2794,-0.2769,-0.2725,-0.269,-0.2673,-0.2674,-0.2678,-0.2682,-0.2687,-0.266,-0.2662,-0.2635,-0.2635,-0.2635,0,0,-0.3031,-0.3032,-0.3028,-0.3022,-0.3008,-0.3009,-0.2985,-0.2982,-0.2975,-0.2919,-0.289,-0.285,-0.279,-0.2754,-0.2735,-0.2722,-0.2685,-0.2683,-0.2687,-0.2689,-0.2661,-0.2664,-0.2666,-0.2635,-0.2635,-0.2635,0,0,-0.3046,-0.303,-0.3043,-0.3042,-0.3043,-0.3024,-0.3031,-0.3008,-0.2988,-0.2966,-0.2922,-0.2889,-0.2822,-0.2779,-0.2747,-0.275,-0.2712,-0.2732,-0.2761,-0.2735,-0.2738,-0.2739,-0.2741,-0.2742,-0.2732,-0.2732,-0.2732,0,-0.3052,-0.3057,-0.3044,-0.3064,-0.307,-0.3038,-0.3055,-0.3024,-0.2994,-0.2984,-0.2968,-0.2884,-0.2832,-0.2787,-0.2785,-0.2758,-0.2749,-0.2746,-0.2742,-0.2743,-0.2744,-0.2744,-0.2745,-0.2735,-0.2734,-0.2734,-0.2734,0,-0.3075,-0.3084,-0.3094,-0.3104,-0.3105,-0.3113,-0.309,-0.3076,-0.3053,-0.3027,-0.2991,-0.2925,-0.288,-0.2852,-0.2813,-0.2787,-0.2784,-0.2754,-0.2732,-0.275,-0.275,-0.275,-0.2739,-0.2738,-0.2737,-0.2736,0,0,-0.3063,-0.3109,-0.3108,-0.3129,-0.3132,-0.3134,-0.3127,-0.3113,-0.3113,-0.3064,-0.306,-0.2976,-0.2949,-0.2912,-0.2859,-0.2827,-0.2823,-0.2796,-0.2794,-0.2805,-0.2791,-0.2681,-0.267,-0.2794,-0.2794,-0.2794,-0.2797,0,-0.3084,-0.314,-0.3155,-0.3184,-0.3196,-0.3191,-0.3192,-0.3175,-0.3147,-0.313,-0.3059,-0.3028,-0.2967,-0.295,-0.2908,-0.2843,-0.2821,-0.2826,-0.2765,-0.2764,-0.2668,-0.2665,-0.2527,-0.2508,-0.2796,-0.2796,-0.2796,0,-0.3075,-0.3119,-0.3163,-0.3226,-0.3236,-0.3247,-0.3253,-0.3261,-0.3227,-0.3209,-0.3168,-0.3118,-0.3058,-0.3007,-0.2914,-0.2923,-0.2866,-0.2815,-0.2814,-0.2687,-0.2651,-0.253,-0.2496,-0.2508,-0.2795,-0.2795,-0.2795,0,-0.3025,-0.3113,-0.3152,-0.3168,-0.3226,-0.3246,-0.3281,-0.3272,-0.3278,-0.3259,-0.3249,-0.3187,-0.3138,-0.3068,-0.2943,-0.2942,-0.2844,-0.2831,-0.2685,-0.2679,-0.2535,-0.2515,-0.2503,-0.2775,-0.2775,-0.2775,-0.2775,0,-0.3004,-0.3031,-0.3135,-0.3138,-0.3191,-0.3247,-0.3285,-0.33,-0.332,-0.3279,-0.3285,-0.321,-0.3146,-0.3066,-0.2979,-0.2817,-0.2872,-0.2689,-0.2661,-0.2553,-0.2535,-0.2515,-0.2528,-0.2776,-0.2776,-0.2776,-0.2776,0,-0.291,-0.2979,-0.3015,-0.3112,-0.3148,-0.3176,-0.3286,-0.328,-0.3343,-0.3288,-0.328,-0.3235,-0.3104,-0.3042,-0.2916,-0.2837,-0.2655,-0.2651,-0.254,-0.2496,-0.2358,-0.2377,-0.2265,-0.2215,-0.251,-0.2507,-0.2505,0,-0.2866,-0.2878,-0.2972,-0.2965,-0.3001,-0.3083,-0.3096,-0.3233,-0.322,-0.3233,-0.3159,-0.3097,-0.2933,-0.2783,-0.2642,-0.2515,-0.2507,-0.2352,-0.2302,-0.2325,-0.2329,-0.2324,-0.2292,-0.2161,-0.2156,-0.2152,-0.2148,0,-0.2764,-0.279,-0.2798,-0.2805,-0.2818,-0.2881,-0.2933,-0.2949,-0.3031,-0.2995,-0.2873,-0.2785,-0.265,-0.2432,-0.2334,-0.2235,-0.2283,-0.2259,-0.2302,-0.2061,-0.2034,-0.198,-0.2226,-0.2111,-0.2115,-0.2118,-0.212,-0.2121,-0.2632,-0.262,-0.2609,-0.2587,-0.2607,-0.2597,-0.2575,-0.2605,-0.2573,-0.2459,-0.2513,-0.2338,-0.2269,-0.2075,-0.2015,-0.192,-0.1959,-0.1863,-0.1894,-0.1898,-0.1804,-0.1974,-0.1806,-0.1807,-0.1809,-0.181,-0.1812,0,-0.2422,-0.242,-0.2395,-0.2351,-0.227,-0.2373,-0.2369,-0.2285,-0.2135,-0.211,-0.1988,-0.188,-0.1733,-0.1748,-0.1668,-0.1604,-0.1588,-0.1591,-0.1587,-0.1579,-0.174,-0.168,-0.145,-0.145,-0.145,-0.145,-0.145,-0.145,-0.2308,-0.2187,-0.2181,-0.1994,-0.1968,-0.184,-0.1787,-0.1679,-0.1643,-0.1473,-0.1433,-0.1454,-0.1512,-0.1578,-0.1528,-0.1477,-0.1488,-0.138,-0.1471,-0.1636,-0.1667,-0.1696,-0.1645,-0.1411,-0.1411,-0.1241,-0.124,-0.1239]},{"header":{"parameterUnit":"m.s-1","parameterCategory":2,"la1":30.2991,"la2":30.254,"lo1":-89.0895,"lo2":-89.0444,"dy":0.0017,"dx":0.0017,"nx":28,"ny":28,"refTime":"2025-03-26T21:00:00:Z","depth":"0","parameterNumber":3,"parameterNumberName":"V-component_of_CURRENTS"},"data":[0,0,0,0,0,0,0,0,0,0,0,0,0,0,0,0,0,0,0,0,0,0,0,0,0,0,0,0,0,0,0,0,0,0,0,0,0,0,0,0,0,0,0,0,0,0,0,0,0,0,0,0,0,0,0,0,0,0,0.0172,0.0174,0,0.0283,0.0284,0.0285,0.0308,0.0307,0.0307,0.0306,0.0357,0.0359,0.0361,0,0,0,0,0,0,0,0,0,0,0,0,0,0.0044,0.0045,0.0172,0.0174,0.0175,0.0283,0.0284,0.0285,0.0308,0.0307,0.0307,0.0306,0.0357,0.0359,0.0361,0,0,0,0,0,0,0,0,0,0,0,0,0,0.0118,0.0046,0.0172,0.0202,0.0207,0.0282,0.0284,0.0285,0.0308,0.0307,0.0306,0.0306,0.0356,0.0359,0.0361,0.0393,0,0,0.037,0.0371,0,0,0,0,0,0,0,0,0.0113,0.0122,0.0196,0.02,0.0205,0.0284,0.0258,0.032,0.0308,0.0266,0.0306,0.0305,0.033,0.0335,0.0353,0.0395,0.0398,0.037,0.0372,0.0373,0.0374,0,0,0,0,0,0,0,0.0108,0.0118,0.0212,0.0198,0.0204,0.0233,0.0241,0.027,0.0297,0.0269,0.0272,0.029,0.0332,0.035,0.0354,0.0398,0.037,0.0372,0.0374,0.0375,0.0498,0.05,0,0,0,0,0,0,0.01,0.0113,0.0209,0.0216,0.0161,0.0236,0.0245,0.0256,0.0298,0.0305,0.0291,0.0291,0.0346,0.0351,0.0356,0.0407,0.0373,0.0375,0.0377,0.0497,0.0498,0.05,0,0,0,0,0,0,0.0097,0.0107,0.0204,0.017,0.0185,0.0239,0.0251,0.0259,0.0277,0.0316,0.0321,0.03,0.0346,0.0352,0.0395,0.0408,0.0377,0.0379,0.0495,0.0497,0.0499,0.0501,0,0,0,0,0,0,0.0092,0.0105,0.0108,0.0169,0.0187,0.0245,0.0252,0.0262,0.0291,0.0292,0.0326,0.033,0.0346,0.0391,0.0398,0.0411,0.0381,0.0493,0.0496,0.0499,0.0499,0.0503,0.0507,0,0,0,0,0,0.0087,0.0092,0.0107,0.0119,0.0189,0.0245,0.0256,0.029,0.0292,0.0301,0.0335,0.0329,0.0415,0.0395,0.0402,0.0417,0.0491,0.0495,0.0498,0.0497,0.0503,0.0507,0,0,0,0,0,0,0.0029,0.0098,0.0114,0.0137,0.0187,0.025,0.0263,0.029,0.0326,0.0321,0.0352,0.0359,0.0402,0.0416,0.0393,0.0465,0.0451,0.0457,0.0448,0.0453,0.0457,0.0447,0.0383,0,0,0,0,0,0.0021,0.0046,0.0113,0.0129,0.0151,0.0207,0.0233,0.0258,0.0302,0.0316,0.0349,0.0385,0.0426,0.0442,0.0477,0.0515,0.0525,0.0531,0.0535,0.0538,0.0538,0.0575,0.0581,0.0512,0.0512,0.0512,0,0,0.0002,0.0044,0.0056,0.012,0.0155,0.0197,0.0218,0.0255,0.0291,0.0316,0.0365,0.0399,0.0441,0.0488,0.0507,0.0498,0.0564,0.0543,0.0545,0.0543,0.0579,0.0586,0.0591,0.0515,0.0514,0.0514,0,0,-0.0015,0.0012,0.0032,0.0077,0.0138,0.018,0.019,0.0258,0.0284,0.0342,0.0373,0.042,0.0477,0.0517,0.0543,0.0592,0.0585,0.0598,0.0607,0.0642,0.0648,0.0653,0.0669,0.0675,0.0597,0.0597,0.0597,0,-0.0038,-0.0006,0.0045,0.0082,0.0115,0.0171,0.0201,0.0247,0.0322,0.0348,0.0354,0.0464,0.0495,0.0564,0.0583,0.0599,0.0608,0.058,0.0645,0.065,0.0655,0.0671,0.0677,0.0598,0.0598,0.0598,0.0598,0,-0.0034,-0.0004,0.0008,0.0076,0.012,0.0149,0.0225,0.0265,0.0304,0.0354,0.0426,0.0487,0.0547,0.0571,0.0592,0.0649,0.064,0.0644,0.0625,0.0662,0.0676,0.0683,0.0599,0.0598,0.0598,0.0598,0,0,-0.0109,-0.0007,-0.0007,0.0015,0.0115,0.0139,0.0212,0.0284,0.0315,0.0395,0.0445,0.0535,0.0561,0.0594,0.0631,0.067,0.0714,0.0667,0.0669,0.0669,0.0776,0.0719,0.072,0.0722,0.0724,0.0725,0.077,0,-0.0129,-0.0088,-0.0009,0.0028,0.0044,0.0137,0.0199,0.0273,0.0336,0.04,0.0479,0.0535,0.0572,0.0593,0.0646,0.0702,0.0734,0.0701,0.0754,0.0755,0.0687,0.0727,0.0702,0.0735,0.0777,0.0778,0.0779,0,-0.0166,-0.0133,-0.011,-0.0018,0.0001,0.0043,0.0124,0.0196,0.0313,0.0363,0.0447,0.0508,0.0601,0.061,0.0729,0.0703,0.0736,0.0774,0.0777,0.0726,0.0711,0.0709,0.0746,0.0868,0.0789,0.0788,0.0788,0,-0.0298,-0.0209,-0.0205,-0.0176,-0.0058,-0.0029,0.0044,0.0162,0.0218,0.033,0.037,0.0495,0.0549,0.063,0.0724,0.0723,0.0833,0.0839,0.0819,0.0815,0.0806,0.0797,0.0954,0.0901,0.0901,0.0901,0.0901,0,-0.0371,-0.0369,-0.0278,-0.0281,-0.0267,-0.0139,-0.0096,-0.0005,0.0125,0.0189,0.0328,0.0389,0.0554,0.0645,0.0719,0.0792,0.0831,0.0825,0.0828,0.0805,0.0796,0.0909,0.095,0.0903,0.0902,0.0902,0.0902,0,-0.052,-0.0456,-0.0463,-0.0369,-0.0336,-0.034,-0.0189,-0.0139,-0.0009,0.0079,0.0113,0.0309,0.0429,0.0574,0.0711,0.077,0.0883,0.0854,0.0805,0.08,0.0875,0.0915,0.0998,0.1026,0.0843,0.0842,0.0841,0,-0.0584,-0.061,-0.0568,-0.0562,-0.0522,-0.0477,-0.0413,-0.0249,-0.0177,0.0024,0.006,0.0211,0.0308,0.0499,0.0631,0.0747,0.0839,0.0789,0.0782,0.0882,0.093,0.0943,0.0963,0.0778,0.0777,0.0776,0.0775,0,-0.0707,-0.0713,-0.0711,-0.0706,-0.0674,-0.0614,-0.0509,-0.0478,-0.0268,-0.0192,-0.0052,0.0037,0.0239,0.0392,0.0553,0.062,0.0836,0.0764,0.0904,0.0917,0.0909,0.0935,0.0738,0.0765,0.0766,0.0767,0.0767,0.0767,-0.0802,-0.0847,-0.0834,-0.0826,-0.0781,-0.0709,-0.0664,-0.0555,-0.0463,-0.0293,-0.0189,-0.0016,0.0235,0.0456,0.0534,0.0747,0.0735,0.0828,0.0875,0.0886,0.0895,0.0652,0.0652,0.0653,0.0653,0.0653,0.0653,0,-0.0885,-0.0898,-0.0911,-0.088,-0.0828,-0.0777,-0.0673,-0.0612,-0.0529,-0.0374,-0.026,0.0073,0.0274,0.0531,0.0803,0.09,0.0915,0.0974,0.104,0.106,0.0893,0.0874,0.0878,0.0878,0.0878,0.0878,0.0878,0.0878,-0.0924,-0.096,-0.0957,-0.0899,-0.0858,-0.0779,-0.0727,-0.0659,-0.0534,-0.0304,-0.0069,0.0107,0.049,0.0908,0.116,0.1158,0.1273,0.1207,0.1295,0.1247,0.124,0.1233,0.123,0.1309,0.131,0.1443,0.1445,0.1446]}],[{"header":{"parameterUnit":"m.s-1","parameterCategory":2,"la1":30.2991,"la2":30.254,"lo1":-89.0895,"lo2":-89.0444,"dy":0.0017,"dx":0.0017,"nx":28,"ny":28,"refTime":"2025-03-26T21:00:00:Z","depth":"2","parameterNumber":2,"parameterNumberName":"U-component_of_CURRENTS"},"data":[0,0,0,0,0,0,0,0,0,0,0,0,0,0,0,0,0,0,0,0,0,0,0,0,0,0,0,0,0,0,0,0,0,0,0,0,0,0,0,0,0,0,0,0,0,0,0,0,0,0,0,0,0,0,0,0,0,0,-0.2487,-0.2484,0,-0.242,-0.2422,-0.2423,-0.2532,-0.2533,-0.2534,-0.2535,-0.2422,-0.2418,-0.2414,0,0,0,0,0,0,0,0,0,0,0,0,0,-0.258,-0.2581,-0.2487,-0.2484,-0.248,-0.242,-0.2422,-0.2424,-0.2532,-0.2533,-0.2534,-0.2535,-0.2423,-0.2418,-0.2414,0,0,0,0,0,0,0,0,0,0,0,0,0,-0.2557,-0.2581,-0.2488,-0.2506,-0.2504,-0.2419,-0.2422,-0.2424,-0.2531,-0.2533,-0.2535,-0.2536,-0.2425,-0.2419,-0.2413,-0.2344,0,0,-0.2395,-0.2392,0,0,0,0,0,0,0,0,-0.2558,-0.2557,-0.2506,-0.2504,-0.2502,-0.246,-0.2411,-0.2385,-0.2531,-0.2552,-0.2535,-0.2537,-0.241,-0.2405,-0.2432,-0.2339,-0.2334,-0.2394,-0.2391,-0.2388,-0.2386,0,0,0,0,0,0,0,-0.256,-0.2559,-0.2491,-0.2502,-0.2499,-0.2469,-0.2473,-0.2409,-0.2495,-0.255,-0.2551,-0.2496,-0.2413,-0.2438,-0.2429,-0.2333,-0.2394,-0.2389,-0.2385,-0.2383,-0.2224,-0.2223,0,0,0,0,0,0,-0.2515,-0.2562,-0.2492,-0.2485,-0.2502,-0.2465,-0.247,-0.2496,-0.2497,-0.249,-0.2495,-0.2501,-0.2447,-0.2436,-0.2425,-0.2413,-0.2388,-0.2382,-0.2379,-0.2224,-0.2224,-0.2223,0,0,0,0,0,0,-0.2519,-0.2513,-0.2494,-0.2494,-0.2486,-0.246,-0.2489,-0.2493,-0.2504,-0.2449,-0.2449,-0.2496,-0.2448,-0.2433,-0.2379,-0.2406,-0.238,-0.2374,-0.2225,-0.2224,-0.2223,-0.2341,0,0,0,0,0,0,-0.2524,-0.2517,-0.2509,-0.2493,-0.2483,-0.2463,-0.2484,-0.249,-0.2454,-0.2463,-0.2449,-0.2442,-0.2448,-0.2388,-0.2373,-0.2397,-0.237,-0.2226,-0.2225,-0.2224,-0.2338,-0.2344,-0.2349,0,0,0,0,0,-0.2529,-0.2508,-0.2512,-0.2499,-0.2481,-0.2459,-0.2458,-0.246,-0.2452,-0.2476,-0.2455,-0.2442,-0.237,-0.2382,-0.2364,-0.2388,-0.2226,-0.2225,-0.2224,-0.2335,-0.2343,-0.2349,0,0,0,0,0,0,-0.2531,-0.2513,-0.2519,-0.2492,-0.2479,-0.2467,-0.2474,-0.2438,-0.2445,-0.2466,-0.2419,-0.2411,-0.2395,-0.2341,-0.2354,-0.2334,-0.23,-0.2295,-0.239,-0.2397,-0.2402,-0.2411,-0.2365,0,0,0,0,0,-0.2521,-0.2529,-0.2497,-0.2481,-0.2498,-0.2481,-0.2459,-0.2464,-0.2447,-0.2456,-0.2443,-0.2412,-0.2374,-0.2344,-0.2333,-0.228,-0.226,-0.2283,-0.2289,-0.2294,-0.2286,-0.2255,-0.2258,-0.2218,-0.2218,-0.2218,0,0,-0.2523,-0.2495,-0.2506,-0.2481,-0.2509,-0.2522,-0.2488,-0.249,-0.2478,-0.2431,-0.2459,-0.2441,-0.2366,-0.2368,-0.235,-0.2321,-0.2307,-0.2293,-0.2299,-0.2287,-0.2254,-0.2258,-0.2262,-0.2217,-0.2217,-0.2217,0,0,-0.2525,-0.2531,-0.2555,-0.2552,-0.2537,-0.2537,-0.2524,-0.2537,-0.2548,-0.2528,-0.2507,-0.2485,-0.2436,-0.241,-0.2369,-0.2365,-0.2355,-0.2365,-0.2384,-0.2355,-0.2359,-0.2361,-0.2407,-0.2413,-0.2349,-0.2349,-0.2349,0,-0.2526,-0.256,-0.2549,-0.2563,-0.2561,-0.2544,-0.2577,-0.2564,-0.2542,-0.2544,-0.2559,-0.2498,-0.2458,-0.2384,-0.2419,-0.2384,-0.2389,-0.2375,-0.2367,-0.2369,-0.237,-0.2415,-0.242,-0.2355,-0.2354,-0.2353,-0.2353,0,-0.2543,-0.2586,-0.2614,-0.2652,-0.2631,-0.2677,-0.2641,-0.2657,-0.2659,-0.2639,-0.2619,-0.2572,-0.2529,-0.2515,-0.2469,-0.244,-0.2455,-0.2402,-0.2363,-0.2382,-0.2428,-0.2431,-0.2362,-0.2361,-0.2359,-0.2358,0,0,-0.2535,-0.263,-0.2653,-0.2669,-0.2703,-0.2668,-0.2699,-0.2702,-0.2705,-0.2693,-0.2691,-0.2627,-0.2616,-0.2564,-0.2499,-0.2459,-0.2508,-0.2442,-0.2438,-0.2515,-0.251,-0.2349,-0.2337,-0.2462,-0.2461,-0.2461,-0.2566,0,-0.2593,-0.2652,-0.2693,-0.2734,-0.2747,-0.2776,-0.2805,-0.2772,-0.2774,-0.278,-0.2694,-0.2682,-0.2615,-0.2614,-0.2562,-0.2531,-0.2511,-0.2489,-0.2455,-0.2455,-0.2329,-0.2331,-0.2145,-0.2204,-0.2569,-0.2569,-0.2569,0,-0.2568,-0.261,-0.269,-0.2761,-0.2793,-0.2806,-0.283,-0.2851,-0.285,-0.2873,-0.2825,-0.2782,-0.2719,-0.2662,-0.2595,-0.2594,-0.2562,-0.2526,-0.2528,-0.2325,-0.2294,-0.2226,-0.2196,-0.2574,-0.2574,-0.2573,-0.2573,0,-0.2453,-0.258,-0.2642,-0.266,-0.2751,-0.2786,-0.2847,-0.2866,-0.2905,-0.2901,-0.2922,-0.2861,-0.283,-0.2764,-0.2675,-0.2666,-0.2613,-0.2592,-0.2413,-0.2407,-0.2208,-0.218,-0.2534,-0.2533,-0.2533,-0.2533,-0.2533,0,-0.241,-0.2467,-0.2583,-0.2604,-0.2663,-0.2712,-0.2792,-0.2853,-0.2938,-0.2913,-0.2935,-0.2844,-0.2851,-0.2792,-0.2726,-0.2572,-0.2652,-0.2417,-0.2395,-0.2247,-0.2222,-0.2485,-0.2478,-0.2537,-0.2536,-0.2535,-0.2535,0,-0.2245,-0.2383,-0.2424,-0.256,-0.26,-0.2599,-0.2789,-0.2804,-0.2927,-0.2882,-0.2884,-0.2895,-0.2802,-0.2791,-0.2721,-0.2617,-0.2508,-0.2426,-0.2287,-0.2241,-0.234,-0.2338,-0.2291,-0.2286,-0.2281,-0.2277,-0.2274,0,-0.2204,-0.2199,-0.2335,-0.2356,-0.2433,-0.2494,-0.2544,-0.2749,-0.272,-0.2794,-0.269,-0.2715,-0.2526,-0.2456,-0.2373,-0.23,-0.2367,-0.2072,-0.1965,-0.2318,-0.2303,-0.2308,-0.2312,-0.1815,-0.1808,-0.1803,-0.1799,0,-0.2094,-0.2145,-0.2178,-0.2206,-0.2246,-0.2287,-0.2338,-0.2351,-0.2471,-0.2468,-0.2325,-0.2237,-0.2164,-0.1984,-0.1984,-0.1886,-0.2082,-0.1949,-0.2343,-0.1862,-0.1863,-0.1851,-0.1872,-0.1749,-0.1754,-0.1758,-0.1761,-0.1763,-0.2007,-0.1983,-0.2022,-0.2003,-0.2066,-0.201,-0.1989,-0.2003,-0.2,-0.1942,-0.192,-0.1767,-0.1773,-0.1628,-0.1542,-0.1562,-0.1683,-0.1618,-0.1639,-0.1664,-0.1546,-0.1532,-0.1343,-0.1346,-0.1348,-0.135,-0.1352,0,-0.1801,-0.1806,-0.1816,-0.1793,-0.1755,-0.1854,-0.1787,-0.1713,-0.1599,-0.1584,-0.1495,-0.1284,-0.1176,-0.1235,-0.1158,-0.1121,-0.1157,-0.109,-0.1148,-0.1195,-0.1236,-0.1101,-0.0779,-0.0778,-0.0776,-0.0775,0,0,-0.1718,-0.1635,-0.1617,-0.1483,-0.1474,-0.1367,-0.1301,-0.1231,-0.1193,-0.1081,-0.1046,-0.1115,-0.1119,-0.0947,-0.0915,-0.0833,-0.1008,-0.0787,-0.1237,-0.1347,-0.1388,-0.1518,-0.1355,0,0,0,0,0]},{"header":{"parameterUnit":"m.s-1","parameterCategory":2,"la1":30.2991,"la2":30.254,"lo1":-89.0895,"lo2":-89.0444,"dy":0.0017,"dx":0.0017,"nx":28,"ny":28,"refTime":"2025-03-26T21:00:00:Z","depth":"2","parameterNumber":3,"parameterNumberName":"V-component_of_CURRENTS"},"data":[0,0,0,0,0,0,0,0,0,0,0,0,0,0,0,0,0,0,0,0,0,0,0,0,0,0,0,0,0,0,0,0,0,0,0,0,0,0,0,0,0,0,0,0,0,0,0,0,0,0,0,0,0,0,0,0,0,0,-0.0122,-0.0122,0,-0.0047,-0.0045,-0.0043,0.0062,0.0062,0.0062,0.0062,0.0101,0.0101,0.0102,0,0,0,0,0,0,0,0,0,0,0,0,0,-0.0186,-0.0184,-0.0121,-0.0122,-0.0123,-0.0047,-0.0045,-0.0042,0.0062,0.0062,0.0062,0.0062,0.01,0.0101,0.0102,0,0,0,0,0,0,0,0,0,0,0,0,0,-0.0123,-0.0183,-0.0121,-0.0075,-0.0071,-0.0048,-0.0045,-0.0041,0.0062,0.0062,0.0062,0.0063,0.01,0.0101,0.0102,0.0104,0,0,0.0106,0.0107,0,0,0,0,0,0,0,0,-0.0127,-0.0118,-0.0081,-0.0078,-0.0074,-0.0017,-0.0054,-0.0,0.0062,0.003,0.0062,0.0063,0.0046,0.0052,0.0091,0.0106,0.0107,0.0106,0.0107,0.0108,0.0108,0,0,0,0,0,0,0,-0.0131,-0.0122,-0.0074,-0.0082,-0.0078,-0.0063,-0.0051,-0.0042,0.0048,0.0032,0.0036,0.0017,0.0051,0.0089,0.0092,0.0108,0.0106,0.0107,0.0108,0.0109,0.0179,0.018,0,0,0,0,0,0,-0.0174,-0.0125,-0.0077,-0.0074,-0.012,-0.0063,-0.005,-0.0021,0.0049,0.0055,0.0016,0.0021,0.0087,0.009,0.0093,0.0149,0.0108,0.0109,0.0109,0.0178,0.0179,0.0181,0,0,0,0,0,0,-0.0175,-0.0168,-0.0081,-0.0115,-0.0105,-0.0064,-0.0032,-0.002,0.0,0.0034,0.0043,0.002,0.0087,0.0091,0.0109,0.0148,0.0109,0.011,0.0177,0.0179,0.018,0.0226,0,0,0,0,0,0,-0.0176,-0.0167,-0.0167,-0.0116,-0.0105,-0.0071,-0.0034,-0.002,-0.002,-0.0012,0.0039,0.0045,0.0088,0.0107,0.0111,0.0149,0.0111,0.0175,0.0178,0.018,0.0223,0.0229,0.0234,0,0,0,0,0,-0.0177,-0.0192,-0.0166,-0.0163,-0.0102,-0.0074,-0.0063,-0.0024,-0.0021,-0.0004,0.0035,0.0043,0.0124,0.0109,0.0112,0.0152,0.0174,0.0177,0.0179,0.0221,0.0228,0.0234,0,0,0,0,0,0,-0.0227,-0.0183,-0.0153,-0.0153,-0.0118,-0.0063,-0.0051,-0.0045,0.0002,0.0018,0.0045,0.0055,0.0102,0.0101,0.0083,0.0179,0.0154,0.0158,0.0185,0.0192,0.0197,0.0184,0.0112,0,0,0,0,0,-0.0239,-0.0221,-0.0182,-0.0176,-0.0152,-0.0105,-0.0097,-0.0065,-0.0027,-0.0004,0.0041,0.0081,0.0119,0.0128,0.0178,0.0198,0.0207,0.0229,0.0235,0.024,0.0232,0.0261,0.0268,0.0189,0.0189,0.0189,0,0,-0.0255,-0.0236,-0.0223,-0.0185,-0.0135,-0.01,-0.0091,-0.0063,-0.0035,-0.0013,0.0063,0.0106,0.013,0.0197,0.0215,0.0193,0.0275,0.0243,0.0247,0.0236,0.0264,0.0272,0.0278,0.0191,0.019,0.019,0,0,-0.0281,-0.0246,-0.0231,-0.0202,-0.0159,-0.0114,-0.0121,-0.0047,-0.0006,0.0047,0.0087,0.0138,0.0196,0.0241,0.0256,0.0301,0.0314,0.032,0.0326,0.0355,0.0362,0.0367,0.0423,0.0434,0.031,0.031,0.031,0,-0.0307,-0.0267,-0.0229,-0.0207,-0.0184,-0.0127,-0.0098,-0.005,0.0018,0.0051,0.0078,0.0188,0.0224,0.0262,0.0309,0.0317,0.0337,0.03,0.0362,0.0368,0.0373,0.0428,0.0439,0.0313,0.0312,0.0312,0.0312,0,-0.0321,-0.0276,-0.026,-0.0191,-0.0168,-0.0127,-0.0067,-0.0012,0.0045,0.0097,0.0174,0.0236,0.0291,0.0324,0.0337,0.0389,0.0397,0.0377,0.0344,0.0383,0.044,0.0451,0.0316,0.0315,0.0315,0.0314,0,0,-0.0384,-0.0285,-0.0269,-0.0252,-0.0148,-0.0152,-0.0063,0.0014,0.0047,0.0144,0.0195,0.0288,0.0324,0.0342,0.0365,0.0395,0.0483,0.0403,0.0404,0.0457,0.0571,0.0488,0.0491,0.047,0.0472,0.0472,0.0609,0,-0.0383,-0.0359,-0.0283,-0.0246,-0.0229,-0.0131,-0.0058,0.0007,0.0092,0.0169,0.023,0.0297,0.0322,0.0354,0.0393,0.0472,0.0506,0.0449,0.0525,0.0527,0.0446,0.0498,0.0454,0.0562,0.0619,0.0621,0.0622,0,-0.0419,-0.0398,-0.0365,-0.0285,-0.0259,-0.0227,-0.0132,-0.0064,0.007,0.0149,0.0223,0.0285,0.037,0.037,0.0499,0.0463,0.0518,0.0564,0.057,0.0474,0.0461,0.0524,0.0578,0.0639,0.0637,0.0636,0.0635,0,-0.0546,-0.0462,-0.0449,-0.0427,-0.0318,-0.0286,-0.0214,-0.0083,-0.0012,0.0112,0.018,0.0288,0.0353,0.043,0.0546,0.0534,0.0677,0.067,0.0639,0.0636,0.06,0.0589,0.0729,0.0729,0.0729,0.0728,0.0728,0,-0.0601,-0.059,-0.0527,-0.0528,-0.051,-0.0412,-0.0351,-0.0244,-0.0089,-0.0009,0.0129,0.019,0.037,0.0473,0.0558,0.0638,0.0688,0.065,0.0657,0.0617,0.0607,0.0659,0.0649,0.0733,0.0732,0.0731,0.073,0,-0.0726,-0.0661,-0.0676,-0.0596,-0.0572,-0.0587,-0.0434,-0.0374,-0.022,-0.0117,-0.0075,0.015,0.0295,0.0444,0.061,0.0645,0.0729,0.0727,0.0681,0.0677,0.0677,0.0669,0.0738,0.0736,0.0734,0.0733,0.0732,0,-0.0768,-0.0796,-0.0775,-0.077,-0.0727,-0.0705,-0.0631,-0.0462,-0.0393,-0.0167,-0.0129,0.0062,0.0155,0.0381,0.0521,0.0657,0.0687,0.067,0.0613,0.0674,0.0676,0.0669,0.0663,0.0627,0.0625,0.0624,0.0622,0,-0.086,-0.0868,-0.0876,-0.087,-0.0845,-0.0803,-0.0716,-0.0677,-0.047,-0.0375,-0.0236,-0.0151,0.0073,0.0233,0.0423,0.0487,0.065,0.0634,0.0737,0.0591,0.0569,0.0569,0.0568,0.0608,0.061,0.0611,0.0611,0.0612,-0.0924,-0.0972,-0.0968,-0.0965,-0.0919,-0.0861,-0.0829,-0.0731,-0.0625,-0.0432,-0.0358,-0.0191,-0.0023,0.0237,0.0342,0.0492,0.0505,0.0549,0.0556,0.0564,0.0485,0.0456,0.0464,0.0465,0.0465,0.0466,0.0466,0,-0.0986,-0.1012,-0.1028,-0.1004,-0.0939,-0.0903,-0.0828,-0.0768,-0.0671,-0.0502,-0.0383,-0.0202,-0.0039,0.0158,0.034,0.0404,0.0431,0.0435,0.0472,0.0484,0.0495,0.0415,0.0375,0.0376,0.0376,0.0376,0,0,-0.1016,-0.105,-0.1065,-0.1,-0.0959,-0.0886,-0.0848,-0.0762,-0.0644,-0.0486,-0.0337,-0.0177,-0.0004,0.0118,0.0222,0.0312,0.0378,0.0314,0.0374,0.0414,0.0425,0.0542,0.0428,0,0,0,0,0]}],[{"header":{"parameterUnit":"m.s-1","parameterCategory":2,"la1":30.2991,"la2":30.254,"lo1":-89.0895,"lo2":-89.0444,"dy":0.0017,"dx":0.0017,"nx":28,"ny":28,"refTime":"2025-03-26T21:00:00:Z","depth":"4","parameterNumber":2,"parameterNumberName":"U-component_of_CURRENTS"},"data":[0,0,0,0,0,0,0,0,0,0,0,0,0,0,0,0,0,0,0,0,0,0,0,0,0,0,0,0,0,0,0,0,0,0,0,0,0,0,0,0,0,0,0,0,0,0,0,0,0,0,0,0,0,0,0,0,0,0,-0.0251,-0.0252,0,-0.0338,-0.0338,-0.0339,-0.0363,-0.0363,-0.0363,-0.0363,-0.0427,-0.0429,-0.0431,0,0,0,0,0,0,0,0,0,0,0,0,0,-0.0147,-0.0148,-0.025,-0.0252,-0.0253,-0.0338,-0.0338,-0.0339,-0.0364,-0.0363,-0.0363,-0.0363,-0.0426,-0.0429,-0.0431,0,0,0,0,0,0,0,0,0,0,0,0,0,-0.0205,-0.0149,-0.025,-0.0278,-0.0282,-0.0337,-0.0338,-0.0339,-0.0364,-0.0363,-0.0363,-0.0363,-0.0426,-0.0428,-0.0431,-0.0453,0,0,-0.044,-0.0441,0,0,0,0,0,0,0,0,-0.0202,-0.0209,-0.0273,-0.0276,-0.0281,-0.0343,-0.0326,-0.0378,-0.0364,-0.0329,-0.0363,-0.0363,-0.0399,-0.0404,-0.0416,-0.0456,-0.0459,-0.044,-0.0442,-0.0443,-0.0444,0,0,0,0,0,0,0,-0.0198,-0.0205,-0.0281,-0.0274,-0.0279,-0.0301,-0.0308,-0.0336,-0.0361,-0.0332,-0.0335,-0.035,-0.0401,-0.0414,-0.0418,-0.046,-0.044,-0.0442,-0.0444,-0.0445,-0.0568,-0.057,0,0,0,0,0,0,-0.0193,-0.0201,-0.0279,-0.0284,-0.0244,-0.0303,-0.0311,-0.032,-0.0361,-0.0369,-0.035,-0.0351,-0.0409,-0.0415,-0.042,-0.0484,-0.0443,-0.0445,-0.0447,-0.0567,-0.0569,-0.057,0,0,0,0,0,0,-0.019,-0.0198,-0.0275,-0.0248,-0.026,-0.0305,-0.0315,-0.0322,-0.0346,-0.0376,-0.0382,-0.0368,-0.0409,-0.0416,-0.0458,-0.0485,-0.0447,-0.0449,-0.0565,-0.0567,-0.0569,-0.0588,0,0,0,0,0,0,-0.0186,-0.0197,-0.0202,-0.0247,-0.0261,-0.0314,-0.0316,-0.0324,-0.0357,-0.0359,-0.0394,-0.0399,-0.0409,-0.0454,-0.0461,-0.0488,-0.0451,-0.0563,-0.0566,-0.0569,-0.0586,-0.0591,-0.0596,0,0,0,0,0,-0.0182,-0.0194,-0.0202,-0.0212,-0.0267,-0.0315,-0.0324,-0.0353,-0.0358,-0.0372,-0.0399,-0.0398,-0.0478,-0.0457,-0.0465,-0.0494,-0.0561,-0.0565,-0.0568,-0.0584,-0.059,-0.0596,0,0,0,0,0,0,-0.0154,-0.02,-0.0209,-0.0233,-0.0273,-0.0321,-0.0338,-0.036,-0.0393,-0.0393,-0.0417,-0.0424,-0.0466,-0.0483,-0.046,-0.054,-0.0521,-0.0526,-0.053,-0.0536,-0.0541,-0.0575,-0.0454,0,0,0,0,0,-0.015,-0.0169,-0.0217,-0.0237,-0.0254,-0.0297,-0.032,-0.0343,-0.0379,-0.0394,-0.0425,-0.0457,-0.0487,-0.0513,-0.0535,-0.0585,-0.0592,-0.0611,-0.0616,-0.062,-0.0655,-0.0751,-0.0768,-0.0582,-0.0582,-0.0582,0,0,-0.0145,-0.0173,-0.0185,-0.0233,-0.026,-0.0292,-0.0309,-0.0348,-0.0379,-0.0396,-0.0445,-0.0468,-0.05,-0.0548,-0.057,-0.0569,-0.0648,-0.0625,-0.0628,-0.0661,-0.0757,-0.0775,-0.0791,-0.0585,-0.0584,-0.0584,0,0,-0.0146,-0.0168,-0.0183,-0.0217,-0.0265,-0.0294,-0.0307,-0.0363,-0.0389,-0.045,-0.0458,-0.0515,-0.0566,-0.0602,-0.0624,-0.0679,-0.0662,-0.0673,-0.0741,-0.0833,-0.085,-0.0865,-0.0769,-0.0776,-0.069,-0.069,-0.069,0,-0.0138,-0.0168,-0.0197,-0.0223,-0.0251,-0.0294,-0.032,-0.0359,-0.0425,-0.0451,-0.0471,-0.0575,-0.0604,-0.0668,-0.0697,-0.0693,-0.0684,-0.0709,-0.0841,-0.0857,-0.0872,-0.0772,-0.0779,-0.0691,-0.0691,-0.0691,-0.0691,0,-0.0149,-0.0181,-0.0195,-0.0237,-0.0265,-0.0302,-0.0352,-0.0386,-0.0433,-0.0483,-0.0566,-0.0632,-0.0705,-0.0718,-0.0736,-0.0845,-0.077,-0.0822,-0.0824,-0.0892,-0.0779,-0.0787,-0.0693,-0.0693,-0.0692,-0.0692,0,0,-0.013,-0.0188,-0.0195,-0.0231,-0.0279,-0.0316,-0.0346,-0.0405,-0.0439,-0.0538,-0.0608,-0.071,-0.0766,-0.08,-0.0829,-0.0929,-0.099,-0.0938,-0.0942,-0.0835,-0.1063,-0.0997,-0.0996,-0.1081,-0.1085,-0.1089,-0.0892,0,-0.0137,-0.0192,-0.0202,-0.0264,-0.0314,-0.0335,-0.0359,-0.0413,-0.0475,-0.0552,-0.0658,-0.0752,-0.0789,-0.085,-0.0951,-0.0999,-0.1033,-0.103,-0.1021,-0.1017,-0.0952,-0.1016,-0.1104,-0.0897,-0.0899,-0.09,-0.0901,0,-0.0153,-0.0204,-0.0264,-0.031,-0.0321,-0.0356,-0.0406,-0.0422,-0.0507,-0.0558,-0.0674,-0.0768,-0.0908,-0.0962,-0.1075,-0.1073,-0.1078,-0.1104,-0.1098,-0.1061,-0.0974,-0.085,-0.0914,-0.0913,-0.0912,-0.0911,-0.0911,0,-0.0195,-0.0239,-0.0298,-0.0326,-0.0384,-0.0405,-0.0404,-0.0451,-0.0455,-0.0594,-0.064,-0.0807,-0.0884,-0.101,-0.1065,-0.1102,-0.1143,-0.1188,-0.1087,-0.1071,-0.1173,-0.1161,-0.1272,-0.1273,-0.1273,-0.1274,-0.1274,0,-0.0224,-0.0283,-0.0337,-0.0406,-0.0435,-0.0445,-0.0467,-0.048,-0.0507,-0.0537,-0.0665,-0.0741,-0.0931,-0.098,-0.1048,-0.1055,-0.1117,-0.1106,-0.1073,-0.116,-0.1151,-0.1168,-0.1158,-0.1266,-0.1268,-0.1269,-0.1271,0,-0.028,-0.0317,-0.0415,-0.0483,-0.0485,-0.0512,-0.0471,-0.0479,-0.0492,-0.0537,-0.0601,-0.0692,-0.0788,-0.0855,-0.0982,-0.0982,-0.1038,-0.1,-0.0942,-0.0905,-0.0878,-0.0872,-0.0905,-0.0902,-0.09,-0.0898,-0.0896,0,-0.0312,-0.0377,-0.0478,-0.0492,-0.0531,-0.054,-0.0524,-0.0502,-0.0495,-0.0519,-0.0547,-0.0636,-0.072,-0.0741,-0.0854,-0.0884,-0.0912,-0.084,-0.1035,-0.0904,-0.0868,-0.0865,-0.0862,-0.0893,-0.0892,-0.0892,-0.0891,0,-0.0356,-0.0408,-0.0455,-0.0509,-0.053,-0.053,-0.0511,-0.0503,-0.0481,-0.0511,-0.0545,-0.0622,-0.0646,-0.0746,-0.0709,-0.0772,-0.0883,-0.0818,-0.0826,-0.1009,-0.0889,-0.0855,-0.0855,-0.0883,-0.0884,-0.0885,-0.0885,0,-0.0352,-0.0373,-0.0416,-0.0453,-0.0479,-0.0503,-0.0504,-0.0489,-0.047,-0.0503,-0.0525,-0.0599,-0.0652,-0.0678,-0.0693,-0.0711,-0.0772,-0.0785,-0.0796,-0.0806,-0.0887,-0.0727,-0.0661,0,0,0,0,0,-0.0323,-0.0311,-0.0328,-0.0367,-0.0409,-0.0432,-0.0463,-0.0462,-0.0482,-0.0506,-0.0502,-0.0565,-0.0619,-0.0642,-0.0658,-0.0672,-0.0761,-0.0686,-0.0779,-0.084,-0.0849,-0.0966,0,0,0,0,0,0,-0.0272,-0.0278,-0.0294,-0.0283,-0.0306,-0.0333,-0.0376,-0.0403,-0.0401,-0.0449,-0.0482,-0.0529,-0.0583,-0.0604,-0.0643,-0.0651,-0.0703,-0.0723,-0.0722,-0.0834,-0.0843,-0.085,-0.0973,0,0,0,0,0]},{"header":{"parameterUnit":"m.s-1","parameterCategory":2,"la1":30.2991,"la2":30.254,"lo1":-89.0895,"lo2":-89.0444,"dy":0.0017,"dx":0.0017,"nx":28,"ny":28,"refTime":"2025-03-26T21:00:00:Z","depth":"4","parameterNumber":3,"parameterNumberName":"V-component_of_CURRENTS"},"data":[0,0,0,0,0,0,0,0,0,0,0,0,0,0,0,0,0,0,0,0,0,0,0,0,0,0,0,0,0,0,0,0,0,0,0,0,0,0,0,0,0,0,0,0,0,0,0,0,0,0,0,0,0,0,0,0,0,0,-0.0649,-0.0649,0,-0.0646,-0.0646,-0.0646,-0.0634,-0.0634,-0.0634,-0.0633,-0.064,-0.064,-0.064,0,0,0,0,0,0,0,0,0,0,0,0,0,-0.0629,-0.063,-0.0649,-0.0649,-0.0649,-0.0646,-0.0646,-0.0646,-0.0634,-0.0634,-0.0634,-0.0633,-0.064,-0.064,-0.064,0,0,0,0,0,0,0,0,0,0,0,0,0,-0.0632,-0.063,-0.0649,-0.0644,-0.0644,-0.0646,-0.0646,-0.0646,-0.0634,-0.0634,-0.0633,-0.0633,-0.064,-0.064,-0.0641,-0.0647,0,0,-0.0642,-0.0642,0,0,0,0,0,0,0,0,-0.0632,-0.0632,-0.0645,-0.0644,-0.0644,-0.0642,-0.0641,-0.0647,-0.0634,-0.0636,-0.0633,-0.0633,-0.0643,-0.0643,-0.064,-0.0647,-0.0647,-0.0642,-0.0642,-0.0642,-0.0642,0,0,0,0,0,0,0,-0.0631,-0.0632,-0.0646,-0.0645,-0.0644,-0.0637,-0.0637,-0.0642,-0.0639,-0.0636,-0.0635,-0.0638,-0.0642,-0.064,-0.064,-0.0648,-0.0642,-0.0642,-0.0642,-0.0643,-0.071,-0.0712,0,0,0,0,0,0,-0.0636,-0.0632,-0.0646,-0.0646,-0.0639,-0.0638,-0.0638,-0.0641,-0.0639,-0.0639,-0.0638,-0.0637,-0.0639,-0.064,-0.064,-0.0693,-0.0642,-0.0643,-0.0643,-0.0709,-0.0711,-0.0712,0,0,0,0,0,0,-0.0636,-0.0638,-0.0646,-0.064,-0.0641,-0.0639,-0.0642,-0.0641,-0.0645,-0.0641,-0.064,-0.0643,-0.0639,-0.064,-0.0659,-0.0691,-0.0643,-0.0643,-0.0707,-0.0709,-0.0712,-0.0769,0,0,0,0,0,0,-0.0635,-0.0637,-0.0645,-0.0641,-0.0642,-0.0657,-0.0643,-0.0641,-0.0647,-0.0646,-0.0645,-0.0645,-0.0639,-0.0659,-0.066,-0.0691,-0.0644,-0.0705,-0.0708,-0.0711,-0.0765,-0.0773,-0.078,0,0,0,0,0,-0.0635,-0.0647,-0.0646,-0.0648,-0.0651,-0.0658,-0.0658,-0.0654,-0.0648,-0.0655,-0.0658,-0.0645,-0.0678,-0.066,-0.0661,-0.0693,-0.0704,-0.0707,-0.0711,-0.0762,-0.0772,-0.078,0,0,0,0,0,0,-0.0642,-0.0647,-0.0645,-0.0659,-0.0663,-0.0657,-0.0666,-0.066,-0.0667,-0.067,-0.066,-0.0661,-0.0691,-0.0685,-0.0665,-0.0723,-0.0691,-0.0695,-0.073,-0.0739,-0.0746,-0.0749,-0.0644,0,0,0,0,0,-0.0648,-0.0661,-0.0661,-0.0674,-0.0677,-0.0672,-0.0675,-0.0674,-0.0678,-0.068,-0.0685,-0.0693,-0.0706,-0.0715,-0.0724,-0.0752,-0.0722,-0.0776,-0.0783,-0.0789,-0.0794,-0.0765,-0.0769,-0.0724,-0.0724,-0.0724,0,0,-0.0656,-0.0661,-0.0668,-0.0677,-0.0678,-0.0699,-0.0673,-0.0686,-0.0711,-0.0681,-0.0722,-0.0718,-0.0718,-0.0752,-0.0766,-0.0751,-0.0789,-0.0794,-0.0799,-0.08,-0.0769,-0.0773,-0.0776,-0.0726,-0.0726,-0.0725,0,0,-0.0679,-0.0681,-0.0699,-0.0711,-0.0721,-0.0722,-0.0728,-0.0735,-0.0746,-0.078,-0.0766,-0.0783,-0.0806,-0.0814,-0.0819,-0.0873,-0.0826,-0.0876,-0.0917,-0.089,-0.0892,-0.0895,-0.0866,-0.0866,-0.0882,-0.0882,-0.0882,0,-0.0687,-0.0713,-0.0706,-0.0731,-0.075,-0.0737,-0.0767,-0.0778,-0.0795,-0.0811,-0.0806,-0.0842,-0.0842,-0.0874,-0.0893,-0.0891,-0.0856,-0.0882,-0.0897,-0.0898,-0.0899,-0.087,-0.0868,-0.0885,-0.0885,-0.0884,-0.0884,0,-0.0724,-0.0752,-0.0765,-0.0796,-0.0812,-0.0837,-0.0853,-0.0872,-0.0885,-0.0898,-0.0937,-0.0936,-0.0957,-0.0961,-0.0944,-0.096,-0.0926,-0.0904,-0.087,-0.0907,-0.0874,-0.0871,-0.089,-0.0889,-0.0888,-0.0887,0,0,-0.0727,-0.0781,-0.0789,-0.0818,-0.0852,-0.0868,-0.0913,-0.0946,-0.0972,-0.0999,-0.1039,-0.1062,-0.1053,-0.1058,-0.1038,-0.1013,-0.0995,-0.0961,-0.0958,-0.0925,-0.092,-0.0789,-0.0773,-0.0959,-0.0959,-0.0959,-0.0894,0,-0.0759,-0.0817,-0.0841,-0.0906,-0.0934,-0.0952,-0.0994,-0.1024,-0.1045,-0.1081,-0.1088,-0.1127,-0.1094,-0.1107,-0.1077,-0.1007,-0.0988,-0.1014,-0.0896,-0.0893,-0.0765,-0.0766,-0.0958,-0.0892,-0.0891,-0.0891,-0.089,0,-0.0784,-0.0824,-0.0887,-0.0958,-0.0974,-0.1016,-0.1067,-0.1109,-0.1148,-0.1162,-0.1189,-0.1197,-0.1195,-0.116,-0.1069,-0.1077,-0.1013,-0.0954,-0.095,-0.0804,-0.0756,-0.0846,-0.0884,-0.0885,-0.0885,-0.0885,-0.0886,0,-0.0777,-0.0856,-0.0908,-0.0935,-0.1008,-0.1047,-0.1093,-0.1136,-0.1149,-0.1224,-0.1217,-0.1245,-0.1212,-0.1167,-0.1042,-0.1063,-0.0903,-0.0926,-0.0758,-0.0748,-0.0861,-0.0859,-0.0874,-0.0874,-0.0874,-0.0874,-0.0874,0,-0.0793,-0.0837,-0.0912,-0.0947,-0.1008,-0.1066,-0.1122,-0.1165,-0.1196,-0.1188,-0.1259,-0.1212,-0.1197,-0.1105,-0.1048,-0.0854,-0.0909,-0.0756,-0.0716,-0.0888,-0.0891,-0.0858,-0.0857,-0.0872,-0.0872,-0.0873,-0.0873,0,-0.077,-0.0819,-0.0883,-0.0977,-0.1005,-0.1054,-0.1118,-0.1136,-0.1176,-0.1157,-0.1181,-0.1153,-0.1037,-0.0988,-0.0873,-0.0801,-0.0692,-0.0616,-0.0786,-0.0758,-0.0575,-0.0578,-0.0474,-0.0469,-0.0465,-0.0461,-0.0458,0,-0.0759,-0.0788,-0.0892,-0.0919,-0.0965,-0.1033,-0.1057,-0.1119,-0.1105,-0.1079,-0.1036,-0.0962,-0.0928,-0.0668,-0.0639,-0.054,-0.0511,-0.0481,-0.0563,-0.0559,-0.0531,-0.0542,-0.0551,-0.0451,-0.0449,-0.0448,-0.0447,0,-0.074,-0.0779,-0.0832,-0.0882,-0.0921,-0.0961,-0.0995,-0.0966,-0.0991,-0.101,-0.0877,-0.0815,-0.0651,-0.0571,-0.0462,-0.04,-0.0532,-0.0435,-0.0447,-0.0524,-0.0529,-0.0508,-0.0522,-0.0431,-0.0434,-0.0435,-0.0436,0,-0.0715,-0.0743,-0.0801,-0.0839,-0.0872,-0.0875,-0.0911,-0.0864,-0.0852,-0.0813,-0.0743,-0.0663,-0.0625,-0.0488,-0.0391,-0.0312,-0.0328,-0.0343,-0.036,-0.0377,-0.0366,-0.0359,-0.0163,0,0,0,0,0,-0.0688,-0.0712,-0.0749,-0.0792,-0.0813,-0.084,-0.0846,-0.0864,-0.0853,-0.0731,-0.074,-0.0605,-0.0458,-0.041,-0.0304,-0.0339,-0.0335,-0.0214,-0.0366,-0.0345,-0.0363,-0.0354,0,0,0,0,0,0,-0.0668,-0.0704,-0.0736,-0.0727,-0.0742,-0.0762,-0.0769,-0.0771,-0.0699,-0.0682,-0.0598,-0.0575,-0.0437,-0.0513,-0.0301,-0.0281,-0.036,-0.0161,-0.0158,-0.0335,-0.0351,-0.0366,-0.0363,0,0,0,0,0]}]]